Terminal Aerodrome Forecast
Issued by NWS

Current Version | Previous Version | Graphics & Text | Print | Product List | Glossary On
Versions: 1 2 3 4 5 6 7 8 9 10 11 12 13 14 15 16 17 18 19 20
894
FTUS41 KPBZ 251120
TAFMGW
TAF
KMGW 251120Z 2512/2612 18005KT 6SM -RA BKN050
      TEMPO 2512/2513 BKN025
     FM251500 22007KT P6SM SCT050
     FM260300 24006KT P6SM VCTS BKN035CB
     FM260600 VRB05KT P6SM VCSH BKN025=

USA.gov is the U.S. government's official web portal to all federal, state and local government web resources and services.